Change the Weather History Date:

Friday, August 23, 2013

  Actual Average Record
Temperature  
Mean Temperature 72 °F 72 °F  
Max Temperature 82 °F 81 °F 97 °F (1947)
Min Temperature 62 °F 62 °F 48 °F (1904)
Degree Days  
Heating Degree Days 0 0  
Month to date heating degree days 2 0  
Since 1 June heating degree days 54 52  
Since 1 July heating degree days 11 4  
Cooling Degree Days 7 7  
Month to date cooling degree days 147 187  
Year to date cooling degree days 655 689  
Since 1 June cooling degree days 571 635  
Growing Degree Days 22 (Base 50)    
Moisture  
Dew Point 56 °F    
Average Humidity 60    
Maximum Humidity 93    
Minimum Humidity 26    
Precipitation  
Precipitation 0.00 in 0.15 in 2.35 in (2007)
Month to date precipitation 1.26 3.75  
Year to date precipitation 31.94 23.98  
Snow  
Snow 0.00 in 0.00 in 0.00 in ()
Month to date snowfall 0.0 0.0  
Since 1 June snowfall 0.0 0.0  
Since 1 July snowfall 0.0 0.0  
Snow Depth 0.00 in    
Sea Level Pressure  
Sea Level Pressure 30.14 in    
Wind  
Wind Speed 7 mph (NE)    
Max Wind Speed 15 mph    
Max Gust Speed 25 mph    
Visibility 10 miles    
Events      
T = Trace of Precipitation, MM = Missing Value Source: NWS Daily Summary

Daily Weather History Graph

Daily Weather History Graph

Search for Another Location

Airport or City:

Trip Planner

Search our weather history database for the weather conditions in past years. The results will help you decide how hot, cold, wet, or windy it might be!

Date:

Astronomy

Aug. 23, 2013 Rise Set
Actual Time 6:08 AM CDT 7:39 PM CDT
Civil Twilight 5:38 AM CDT 8:08 PM CDT
Nautical Twilight 5:03 AM CDT 8:44 PM CDT
Astronomical Twilight 4:25 AM CDT 9:21 PM CDT
Moon 8:53 PM CDT (8/23) 9:07 AM CDT (8/23)
Length of Visible Light 14h 29m
Length of Day
13h 31m
Waning Gibbous, 91% of the Moon is Illuminated
Aug 23
Waning Gibbous
Aug 28
Last Quarter
Sep 5
New
Sep 12
First Quarter
Sep 19
Full

Hourly Weather History & Observations

Time (CDT) Temp. Dew Point Humidity Pressure Visibility Wind Dir Wind Speed Gust Speed Precip Events Conditions
12:51 AM 68.0 °F 64.9 °F 90% 30.10 in 7.0 mi North 5.8 mph - N/A   Clear
1:51 AM 66.0 °F 63.0 °F 90% 30.10 in 6.0 mi Calm Calm - N/A   Clear
2:51 AM 64.9 °F 62.1 °F 90% 30.09 in 9.0 mi North 4.6 mph - N/A   Clear
3:51 AM 63.0 °F 61.0 °F 93% 30.10 in 9.0 mi North 3.5 mph - N/A   Clear
4:51 AM 63.0 °F 61.0 °F 93% 30.10 in 10.0 mi North 5.8 mph - N/A   Clear
5:51 AM 64.0 °F 62.1 °F 93% 30.12 in 10.0 mi North 5.8 mph - N/A   Partly Cloudy
6:51 AM 64.9 °F 62.1 °F 90% 30.14 in 10.0 mi NNE 4.6 mph - N/A   Clear
7:51 AM 70.0 °F 63.0 °F 78% 30.15 in 10.0 mi NE 4.6 mph - N/A   Clear
8:51 AM 73.0 °F 61.0 °F 66% 30.15 in 10.0 mi NE 9.2 mph - N/A   Clear
9:51 AM 75.9 °F 60.1 °F 58% 30.17 in 10.0 mi ENE 10.4 mph - N/A   Clear
10:51 AM 77.0 °F 55.9 °F 48% 30.17 in 10.0 mi East 9.2 mph - N/A   Clear
11:51 AM 79.0 °F 50.0 °F 36% 30.17 in 10.0 mi East 12.7 mph - N/A   Clear
12:51 PM 80.1 °F 50.0 °F 35% 30.17 in 10.0 mi East 11.5 mph - N/A   Clear
1:51 PM 80.1 °F 46.0 °F 30% 30.15 in 10.0 mi East 12.7 mph - N/A   Partly Cloudy
2:51 PM 81.0 °F 46.0 °F 29% 30.14 in 10.0 mi East 12.7 mph - N/A   Clear
3:51 PM 81.0 °F 45.0 °F 28% 30.14 in 10.0 mi East 8.1 mph - N/A   Clear
4:51 PM 80.1 °F 43.0 °F 27% 30.14 in 10.0 mi ENE 10.4 mph - N/A   Clear
5:51 PM 79.0 °F 46.0 °F 31% 30.14 in 10.0 mi NE 9.2 mph - N/A   Partly Cloudy
6:51 PM 75.9 °F 48.9 °F 38% 30.13 in 10.0 mi ENE 10.4 mph - N/A   Partly Cloudy
7:51 PM 72.0 °F 52.0 °F 49% 30.14 in 10.0 mi ENE 8.1 mph - N/A   Partly Cloudy
8:51 PM 70.0 °F 55.9 °F 61% 30.16 in 10.0 mi Calm Calm - N/A   Partly Cloudy
9:51 PM 69.1 °F 57.9 °F 68% 30.17 in 10.0 mi NE 6.9 mph - N/A   Clear
10:51 PM 64.9 °F 57.9 °F 78% 30.17 in 10.0 mi Calm Calm - N/A   Clear
11:51 PM 66.9 °F 60.1 °F 79% 30.17 in 10.0 mi NE 3.5 mph - N/A   Clear